Lexington Weather

Lexington, Massachusetts, USA

41°F
3/2/2024 9:19am 
  • Lexington Conditions: Overcast
  • Temperature: 41.4°F / 5.2°CWarmer 3.1°F than last hour.
  • Dew Point: 34.3°FIncreased 1.6°Fsince last hour.
  • Relative Humidity: 76%Decreased 4.0% since last hour.
  • Wind: Calm, 10-min avg: Calm, gust: 1 mph
  • Barometer: 30.44 in Steady
  • Visibility: 10 miles
  • Rain Today: 0.00 in
  •   

Regional Weather Roundup
for Boston, MA

        
000
ASUS41 KBOX 020510
RWRBOX

REGIONAL WEATHER ROUNDUP
NATIONAL WEATHER SERVICE BOSTON/NORTON MA
1200 AM EST SAT MAR 02 2024

NOTE:  "FAIR" INDICATES FEW OR NO CLOUDS BELOW 12,000 FEET WITH NO 
SIGNIFICANT WEATHER AND/OR OBSTRUCTIONS TO VISIBILITY.

MAZALL-020600-
EASTERN MASSACHUSETTS
  
CITY           SKY/WX    TMP DP  RH WIND       PRES   REMARKS
BOSTON         CLOUDY    34  22  61 SW13      30.54S WCI  25          
BEVERLY        CLEAR     33  22  63 SW8       30.52S WCI  26          
LAWRENCE       CLEAR     34  20  56 SW7       30.52F WCI  28          
BEDFORD        CLEAR     32  21  64 S6        30.51F WCI  26          
NORWOOD        CLEAR     36  23  59 S5        30.54S                  
MARSHFIELD     MOCLDY    34  27  75 SW8G14    30.54S WCI  27          
PLYMOUTH       CLEAR     35  27  72 SW7       30.55S WCI  29          
TAUNTON        CLEAR     38  27  64 VRB5      30.55S                  
NEW BEDFORD    CLEAR     37  29  72 SW7       30.56S WCI  32          
$$

MAZALL-020600-
CAPE COD AND THE ISLANDS
  
CITY           SKY/WX    TMP DP  RH WIND       PRES   REMARKS
FALMOUTH       NOT AVBL                                               
HYANNIS        CLEAR     36  29  75 SW9       30.55S WCI  29          
CHATHAM        CLEAR     38  32  79 SW7       30.58S                  
PROVINCETOWN   CLEAR     37  32  82 SW15G22   30.56S WCI  28          
NANTUCKET      CLEAR     38  32  79 SW12      30.59F WCI  30          
MARTHAS VNYRD  CLEAR     38  31  76 SW8       30.57F                  
$$
 
MAZALL-020600-
CENTRAL AND WESTERN MASSACHUSETTS
  
CITY           SKY/WX    TMP DP  RH WIND       PRES   REMARKS
WORCESTER      CLEAR     32  21  64 SW10      30.49S WCI  24          
FITCHBURG      CLEAR     35  20  54 S8        30.51S WCI  29          
ORANGE         CLEAR     34  23  64 S6        30.51S WCI  29          
SPRINGFIELD    PTCLDY    34  23  65 S8        30.50S WCI  27          
WESTFIELD      PTCLDY    34  23  64 SE7       30.52S WCI  28          
NORTH ADAMS    PTCLDY    35  22  58 CALM      30.47S                  
PITTSFIELD     PTCLDY    33  20  58 SW5       30.44F WCI  29          
$$
 
RIZALL-020600-
RHODE ISLAND
  
CITY           SKY/WX    TMP DP  RH WIND       PRES   REMARKS
PROVIDENCE     CLOUDY    32  26  78 CALM      30.57S                  
NEWPORT        CLEAR     37  29  72 SW5       30.56S                  
BLOCK ISLAND   CLEAR     37  28  70 SW10      30.57F WCI  30          
SMITHFIELD     CLEAR     32  25  75 CALM      30.54S                  
WESTERLY       PTCLDY    38  29  70 SW7       30.56F                  
$$
 
CTZALL-020600-
CONNECTICUT
  
CITY           SKY/WX    TMP DP  RH WIND       PRES   REMARKS
BRADLEY INTL   CLOUDY    35  25  66 S8        30.53F WCI  29          
HARTFORD       PTCLDY    35  26  69 S6        30.54F WCI  30          
PLAINVILLE     MOCLDY    35  27  73 CALM      30.53F                  
BRIDGEPORT     MOCLDY    38  31  76 SE5       30.54F                  
DANBURY        CLOUDY    36  27  69 SE5       30.52F                  
GROTON         PTCLDY    39  31  72 SW7       30.57S                  
NEW HAVEN      PTCLDY    39  32  76 S5        30.54F                  
CHESTER        PTCLDY    36  30  80 S5        30.54F WCI  32          
MERIDEN        PTCLDY    32  25  75 CALM      30.54F                  
WILLIMANTIC    PTCLDY    31  24  75 CALM      30.56S                  
OXFORD         PTCLDY    34  28  79 S6        30.52F WCI  29          
$$

MEZ002-015-021-024-NHZ003-005-008-011-012-014-VTZ005-008-020600-
NORTHERN NEW ENGLAND
  
CITY           SKY/WX    TMP DP  RH WIND       PRES   REMARKS
PORTLAND ME    MOCLDY    34  18  52 SW6       30.48R WCI  29          
BANGOR ME      CLEAR     25  14  63 S6        30.45R WCI  18          
CONCORD NH     CLEAR     31  18  58 SE3       30.48S                  
MANCHESTER NH  CLOUDY    35  19  52 S8        30.48S WCI  29          
NASHUA NH      CLEAR     33  20  58 CALM      30.51F                  
PORTSMOUTH NH  MOCLDY    35  18  50 SW8       30.49R WCI  28          
JAFFREY NH     CLEAR     34  20  56 SW3       30.47S                  
KEENE NH       CLEAR     28  23  81 CALM      30.50R                  
BURLINGTON VT  CLEAR     41  18  39 S17G28    30.35F                  
MT. WASHINGTON MOCLDY    19   5  53 W40         N/A  WCI  -2          
$$

NYZ052-076-020600-
EASTERN NEW YORK
  
CITY           SKY/WX    TMP DP  RH WIND       PRES   REMARKS
ALBANY         CLOUDY    38  23  55 S12       30.47F WCI  30          
NEW YORK CITY  CLOUDY    42  32  67 S8        30.53S                  
$$
 
ANZALL-020600-
MARINE OBSERVATIONS
  
STATION/POSITION TIME  TEMP    WIND        PRES    VSBY  WAVE
                       AIR SEA DIR/SP/G                  HT/PER
                 (UTC) (F)     (DEG/KT/KT) (MB)    (MI)  (FT/S)
BOSTON BUOY      0450   37 40  220/ 16/ 17 1033.7F         3/ 3
BUZZARDS BAY     0400   39     220/ 15/ 17 1035.8F
NANTUCKET SOUND  0450   39 38  220/ 14/ 16 1034.9F         1/ 3
MASS BAY-STELLWA 0304   38 40  230/ 19/ 25 1034.1F  1 7/8  3/ 4
ISLE OF SHOALS   0400   37     220/ 20/ 21 1032.4R
S OF BLOCK IS    0456      42                N/A           3/ 4
$$

......................KEY.........................
  SKY/WX - SKY CONDITION/PRESENT WEATHER
  TMP    - TEMPERATURE IN FAHRENHEIT
  DWPT   - DEWPOINT IN FAHRENHEIT
  RH     - RELATIVE HUMIDITY IN PERCENT
  WIND   - DIRECTION AND SPEED IN MPH
  PRES   - MEAN SEA LEVEL PRESSURE IN INCHES OF HG
  WCI    - WIND CHILL INDEX
  VSB    - VISIBILITY IN MILES
  HX     - HEAT INDEX
  TC     - TEMPERATURE IN CELSIUS
  VRB    - VARIABLE WIND DIRECTION
  N/A    - NOT AVAILABLE
  
      

Other recent Regional Weather Roundups

Sat Mar 2, 9:10am EST

Sat Mar 2, 8:10am EST

Sat Mar 2, 7:10am EST

Sat Mar 2, 6:10am EST

Sat Mar 2, 5:10am EST

Sat Mar 2, 4:10am EST

Sat Mar 2, 3:10am EST

Sat Mar 2, 2:10am EST

Sat Mar 2, 1:10am EST

Fri Mar 1, 11:10pm EST

Fri Mar 1, 10:10pm EST

Fri Mar 1, 9:10pm EST

Fri Mar 1, 8:10pm EST

Fri Mar 1, 7:10pm EST

Fri Mar 1, 6:10pm EST

Fri Mar 1, 5:10pm EST

Fri Mar 1, 4:10pm EST

Fri Mar 1, 3:10pm EST

Fri Mar 1, 2:10pm EST

Fri Mar 1, 1:10pm EST

Fri Mar 1, 12:10pm EST

Fri Mar 1, 11:10am EST

Fri Mar 1, 10:10am EST

Fri Mar 1, 9:10am EST

Fri Mar 1, 8:10am EST

Fri Mar 1, 7:10am EST

Fri Mar 1, 6:10am EST

Fri Mar 1, 5:10am EST

Fri Mar 1, 4:10am EST

Fri Mar 1, 3:10am EST

Fri Mar 1, 2:10am EST

Fri Mar 1, 1:10am EST

Fri Mar 1, 12:10am EST

Thu Feb 29, 11:10pm EST

Thu Feb 29, 10:10pm EST

Thu Feb 29, 9:10pm EST

Thu Feb 29, 8:10pm EST

Thu Feb 29, 7:10pm EST

Thu Feb 29, 6:10pm EST

Thu Feb 29, 5:10pm EST

Thu Feb 29, 4:10pm EST

Thu Feb 29, 3:10pm EST

Thu Feb 29, 2:10pm EST

Thu Feb 29, 1:10pm EST

Thu Feb 29, 12:10pm EST

Thu Feb 29, 11:10am EST

Thu Feb 29, 10:10am EST

Thu Feb 29, 9:10am EST

Thu Feb 29, 8:10am EST

Thu Feb 29, 7:10am EST

Thu Feb 29, 6:10am EST

Thu Feb 29, 5:10am EST

Thu Feb 29, 4:10am EST

Thu Feb 29, 3:10am EST

Thu Feb 29, 2:10am EST

Thu Feb 29, 1:10am EST

Thu Feb 29, 12:10am EST

Wed Feb 28, 11:10pm EST

Wed Feb 28, 10:10pm EST

Wed Feb 28, 9:10pm EST

Wed Feb 28, 8:10pm EST

Wed Feb 28, 7:10pm EST

Wed Feb 28, 6:10pm EST

Wed Feb 28, 5:10pm EST

Wed Feb 28, 4:10pm EST

Wed Feb 28, 3:10pm EST

Wed Feb 28, 2:10pm EST

Wed Feb 28, 1:10pm EST

Wed Feb 28, 12:10pm EST

Wed Feb 28, 11:10am EST

Wed Feb 28, 10:10am EST

Wed Feb 28, 9:10am EST

Wed Feb 28, 8:10am EST

Wed Feb 28, 7:10am EST

Wed Feb 28, 6:10am EST

Wed Feb 28, 5:10am EST

Wed Feb 28, 4:10am EST

Wed Feb 28, 3:10am EST

Wed Feb 28, 2:10am EST

Wed Feb 28, 1:10am EST

Wed Feb 28, 12:10am EST

Tue Feb 27, 11:10pm EST

Tue Feb 27, 10:10pm EST

Tue Feb 27, 9:10pm EST

Tue Feb 27, 8:10pm EST

Tue Feb 27, 7:10pm EST

Tue Feb 27, 6:10pm EST

Tue Feb 27, 5:10pm EST

Tue Feb 27, 4:10pm EST

Tue Feb 27, 3:10pm EST

Tue Feb 27, 2:10pm EST

Tue Feb 27, 1:10pm EST

Tue Feb 27, 12:10pm EST

Tue Feb 27, 11:10am EST

Tue Feb 27, 10:10am EST

Tue Feb 27, 9:10am EST

Tue Feb 27, 8:10am EST

Tue Feb 27, 7:10am EST

Tue Feb 27, 6:10am EST

Tue Feb 27, 5:10am EST

Tue Feb 27, 4:10am EST

Tue Feb 27, 3:10am EST

Tue Feb 27, 2:10am EST

Tue Feb 27, 1:10am EST

Tue Feb 27, 12:10am EST

Mon Feb 26, 11:10pm EST

Mon Feb 26, 10:10pm EST

Mon Feb 26, 9:10pm EST

Mon Feb 26, 8:10pm EST

Mon Feb 26, 7:10pm EST

Mon Feb 26, 6:10pm EST

Mon Feb 26, 5:10pm EST

Mon Feb 26, 4:10pm EST

Mon Feb 26, 3:10pm EST

Mon Feb 26, 2:10pm EST

Mon Feb 26, 1:10pm EST

Mon Feb 26, 12:10pm EST

Mon Feb 26, 11:10am EST

Mon Feb 26, 10:10am EST

Mon Feb 26, 9:10am EST

Mon Feb 26, 8:10am EST

Mon Feb 26, 7:10am EST

Mon Feb 26, 6:10am EST

Mon Feb 26, 5:10am EST

Mon Feb 26, 4:10am EST

Mon Feb 26, 3:10am EST

Mon Feb 26, 2:10am EST

Mon Feb 26, 1:10am EST

Mon Feb 26, 12:10am EST

Sun Feb 25, 11:10pm EST

Sun Feb 25, 10:10pm EST

Sun Feb 25, 9:10pm EST

Sun Feb 25, 8:10pm EST

Sun Feb 25, 7:10pm EST

Sun Feb 25, 6:10pm EST

Sun Feb 25, 5:10pm EST

Sun Feb 25, 4:10pm EST

Sun Feb 25, 3:10pm EST

Sun Feb 25, 2:10pm EST

Sun Feb 25, 1:10pm EST

Sun Feb 25, 12:10pm EST

Sun Feb 25, 11:10am EST

Sun Feb 25, 10:10am EST

Sun Feb 25, 9:10am EST

Sun Feb 25, 8:10am EST

Sun Feb 25, 7:10am EST

Sun Feb 25, 6:10am EST

Sun Feb 25, 5:10am EST

Sun Feb 25, 4:10am EST

Sun Feb 25, 3:10am EST

Sun Feb 25, 2:10am EST

Sun Feb 25, 1:10am EST

Sun Feb 25, 12:10am EST

Sat Feb 24, 11:10pm EST

Sat Feb 24, 10:10pm EST

Sat Feb 24, 9:10pm EST

Sat Feb 24, 8:10pm EST

Sat Feb 24, 7:10pm EST

Sat Feb 24, 6:10pm EST

Sat Feb 24, 5:10pm EST

Sat Feb 24, 4:10pm EST

Sat Feb 24, 3:10pm EST

Sat Feb 24, 2:10pm EST

Sat Feb 24, 1:10pm EST

Sat Feb 24, 12:10pm EST

Sat Feb 24, 11:10am EST

Sat Feb 24, 10:10am EST